Terminal Aerodrome Forecast
Issued by NWS Wilmington, OH

Current Version | Previous Version | Graphics & Text | Print | Product List | Glossary On
Versions: 1 2 3 4 5 6 7 8 9 10 11 12 13 14 15 16 17 18 19 20 21 22
000
FTUS41 KILN 241458 AAA
TAFCVG
TAF AMD
KCVG 241458Z 2415/2518 21014G24KT P6SM SCT040 BKN150
     FM241800 20012G20KT P6SM BKN040
     FM250000 19007KT P6SM BKN080
     FM250900 18008KT P6SM OVC090 WS020/20050KT
     FM251500 18011G22KT P6SM BKN100=

USA.gov is the U.S. government's official web portal to all federal, state and local government web resources and services.